Location: Unspecified
(0.0000°N, 0.0000°E)
Time: 20:19:13
(UTC+00:00)

Tiros 1 despin weight - Pass Details

Date: 03 June 2022
Orbit: 591 x 639 km, 48.2° (Epoch: 25 June)

Event Time Altitude Azimuth Distance (km) Brightness Sun altitude
Rises 23:06:34 0° 333° (NNW) 2,805 - -64.3°
Reaches altitude 10° 23:08:55 10° 340° (NNW) 1,905 - -64.6°
Maximum altitude 23:13:03 42° 51° (NE) 842 - -65.0°
Drops below altitude 10° 23:17:12 10° 122° (ESE) 1,916 - -65.5°
Sets 23:19:35 0° 129° (SE) 2,823 - -65.7°
